STARLINK-2567 (48276 NORAD) Tracking and Keplerian Element Data

This shows tracking and keplerian element data for the satellite.

Feedback or suggestion? Click here.




ElementValue
Catalog48276
NameSTARLINK-2567
Epoch Orbit197
Epoch Day173.83334491
Epoch Year2021
RAAN257.2828
Inclination53.0517
Eccentricity0.0001771
Argument of Perigee37.7796
Mean Anonmoly330.5233
Mean Motion15.72739002
Decay Rate0.00780878
L11 48276U 21036A 21173.83334491 .00780878 00000-0 51674-2 0 9991
L22 48276 53.0517 257.2828 0001771 37.7796 330.5233 15.72739002 1971

Live tracking and technical data element details for STARLINK-2567 (NORAD 48276). STARLINK-2567 can be tracked NOW for your location showing map with azimuth and elevation plus other details from your city location.

Track the satellite on the map from your city or location and see movement details for azimuth, elevation, latitude, longitude, range, height, and movement on the map or in text.







IsCatalogInMostPopularTable: catalog: 48276, numindb: 23
Update: records affected: 1



GetName: 48276 STARLINK-2567

Hit Count: updated at: Thu, 24 Jun 2021 02:03:56 GMT